Location: Asheville, NC
(35.6000°N, 82.5500°W)
Time: 16:33:10
(UTC-05:00)

Vanguard 3 - Pass Details

Date: 10 December 2017
Orbit: 508 x 3264 km, 33.4° (Epoch: 18 January)

Event Time Altitude Azimuth Distance (km) Brightness Sun altitude
Rises 15:16:52 0° 261° (W) 2,608 10.6 18.5°
Reaches altitude 10° 15:18:57 10° 258° (WSW) 1,709 9.9 18.2°
Maximum altitude 15:22:34 64° 177° (S) 605 7.1 17.7°
Drops below altitude 10° 15:27:05 10° 95° (E) 2,126 9.0 17.0°
Sets 15:29:57 0° 92° (E) 3,335 9.9 16.6°
